Location: Athabasca
(54.7194°N, 113.2858°W)
Time: 09:48:04
(UTC+00:00)

PRISM - Pass Details

Date: 01 December 2023
Orbit: 515 x 532 km, 98.2° (Epoch: 04 March)

Event Time Altitude Azimuth Distance (km) Brightness Sun altitude
Exits shadow 02:13:25 21° 347° (NNW) 1,266 ? -25.0°
Drops below altitude 10° 02:14:48 10° 346° (NNW) 1,829 ? -25.2°
Sets 02:16:56 0° 345° (NNW) 2,722 ? -25.5°
